Weather Roundup
Issued by NWS Corpus Christi, TX

Home | Current Version | Previous Version | Text Only | Print | Product List | Glossary On
Versions: 1 2 3 4 5 6 7 8 9 10 11 12 13 14 15 16 17 18 19 20 21 22 23 24 25 26 27 28 29 30 31 32 33 34 35 36 37 38 39 40 41 42 43 44 45 46 47 48 49 50
000
ASUS44 KCRP 300610
HRRCRP

SOUTH TEXAS REGIONAL WEATHER ROUNDUP
NATIONAL WEATHER SERVICE CORPUS CHRISTI TX
100 AM CDT THU JUL 30 2015


TXZ229>244-300700-
...CORPUS CHRISTI AREA OBSERVATIONS...

CITY           SKY/WX    TMP DP  RH WIND       PRES   REMARKS
CORPUS CHRISTI MOCLDY    78  73  84 S5        30.04R
NAS CORPUS CHR PTCLDY    81  77  88 S8        30.04R
ROCKPORT         N/A     82  77  84 S6        30.03S HX  90
KINGSVILLE NAS CLEAR     79  78  97 CALM      30.04R
ALICE          CLEAR     76  74  93 CALM      30.05R FOG
FALFURRIAS     CLEAR     77  74  89 SE5       30.04R
$$

...VICTORIA AREA OBSERVATIONS...

CITY           SKY/WX    TMP DP  RH WIND       PRES   REMARKS
VICTORIA       CLEAR     79  78  97 SW6       30.05S
BEEVILLE       FAIR      76  75  98 S3        30.05S
PLEASANTON     CLEAR     78  70  75 CALM      30.06R
SAN ANTONIO    CLEAR     82  70  66 S7        30.07R
$$

...LAREDO AREA OBSERVATIONS...

CITY           SKY/WX    TMP DP  RH WIND       PRES   REMARKS
LAREDO         CLEAR     83  70  64 SE9       30.06R
COTULLA        CLEAR     84  71  65 SE10      30.03S
DEL RIO        CLEAR     86  62  44 E10       30.02R
MCALLEN        CLEAR     83  75  77 SE12      30.04R HX  90
HEBBRONVILLE     N/A     75  71  85 E5        30.07R
$$

...OTHER TEXAS OBSERVATIONS...

CITY           SKY/WX    TMP DP  RH WIND       PRES   REMARKS
BROWNSVILLE    CLEAR     80  76  87 SE7       30.04R
HOUSTON        PTCLDY    85  75  72 SW5       30.04R HX  93
COL. STATION   CLEAR     82  72  71 S7        30.04S
AUSTIN         PTCLDY    80  71  74 SW6       30.05S
WACO           CLEAR     81  69  67 S5        30.03S
FORT WORTH     CLEAR     86  65  49 SE3       30.04R
WICHITA FALLS  CLEAR     80  67  64 E6        30.06R
LUBBOCK        PTCLDY    76  63  64 E5        30.18S
EL PASO        MOCLDY    76  63  64 N5        30.18R
$$

...MARINE OBSERVATIONS...

STATION/POSITION TIME  SKY/WX   TEMP    WIND        PRES    VSBY  WAVE   SWELL
                                AIR SEA DIR/SP/G                  HT/PER HT/PER
                 (UTC)          (F)     (DEG/KT/KT) (MB)    (MI)  (FT/S) (FT/S)
PORT ARANSAS     0600            82 85  150/  9/  9 1017.8S
BUOY 90 E PORT A 0550            85 87  210/  4/  6 1017.2R         2/ 6   2/ 6
BUOY 45 SE BAFFI 0550            84 84  170/ 12/ 14 1016.8F         2/ 6   2/ 6
BUOY 200 E PT IS 0550            86 88  180/  2/  2 1017.2F         1/ 5   2/ 5
BUOY 15 E GALVES 0550            85 86  260/ 12/ 14 1016.3F         2/ 6   2/ 6
$$


USA.gov is the U.S. government's official web portal to all federal, state and local government web resources and services.